Harrison, AR

9:40 PM CDT on September 19, 2017 (GMT -0500)
Boone County

Weather History for KHRO - January, 2012

Change the Weather History Date:

Monday, January 23, 2012

  Actual Average Record
Temperature  
Mean Temperature 45 °F 37 °F  
Max Temperature 54 °F 47 °F 75 °F (1943)
Min Temperature 35 °F 27 °F -17 °F (1926)
Degree Days  
Heating Degree Days 20 28  
Month to date heating degree days 547 664  
Since 1 July heating degree days 1959 2263  
Cooling Degree Days 0 0  
Month to date cooling degree days 0 0  
Year to date cooling degree days 0 0  
Moisture  
Dew Point 25 °F    
Average Humidity 51    
Maximum Humidity 76    
Minimum Humidity 26    
Precipitation  
Precipitation 0.00 in 0.08 in 1.84 in (1920)
Month to date precipitation 0.59 1.92  
Year to date precipitation 0.59 1.92  
Snow  
Snow 0.00 in 0.20 in 6.00 in (1956)
Month to date snowfall 0.2 2.8  
Since 1 July snowfall 1.1 4.6  
Snow Depth 0.00 in    
Sea Level Pressure  
Sea Level Pressure 29.93 in    
Wind  
Wind Speed 12 mph (West)    
Max Wind Speed 31 mph    
Max Gust Speed 45 mph    
Visibility 10 miles    
Events      
T = Trace of Precipitation, MM = Missing Value Source: NWS Daily Summary

Daily Weather History Graph

Daily Weather History Graph

Search for Another Location

Airport or City:

Trip Planner

Search our weather history database for the weather conditions in past years. The results will help you decide how hot, cold, wet, or windy it might be!

Date:

Astronomy

Jan. 23, 2012 Rise Set
Actual Time 7:20 AM CST 5:29 PM CST
Civil Twilight 6:52 AM CST 5:56 PM CST
Nautical Twilight 6:21 AM CST 6:27 PM CST
Astronomical Twilight 5:50 AM CST 6:58 PM CST
Moon 7:17 AM CST (1/23) 6:14 PM CST (1/23)
Length of Visible Light 11h 04m
Length of Day
10h 09m
New Moon, 0% of the Moon is Illuminated
Jan 23
New Moon
Jan 30
First Quarter
Feb 7
Full
Feb 14
Last Quarter
Feb 21
New

Hourly Weather History & Observations

Time (CST) Temp. Windchill Dew Point Humidity Pressure Visibility Wind Dir Wind Speed Gust Speed Precip Events Conditions
12:53 AM 44.1 °F 34.2 °F 30.9 °F 60% 29.65 in 10.0 mi West 28.8 mph 43.7 mph N/A   Clear
1:53 AM 41.0 °F 32.2 °F 32.0 °F 70% 29.71 in 10.0 mi West 18.4 mph 39.1 mph N/A   Clear
2:53 AM 39.0 °F 29.0 °F 30.0 °F 70% 29.77 in 10.0 mi West 20.7 mph 35.7 mph N/A   Clear
3:38 AM 39.2 °F 29.0 °F 30.2 °F 70% 29.79 in 10.0 mi West 21.9 mph 35.7 mph N/A   Mostly Cloudy
3:53 AM 39.9 °F 28.8 °F 28.9 °F 65% 29.80 in 10.0 mi West 27.6 mph 44.9 mph N/A   Mostly Cloudy
4:53 AM 39.9 °F 32.5 °F 30.0 °F 68% 29.85 in 10.0 mi West 12.7 mph 27.6 mph N/A   Overcast
5:53 AM 39.9 °F 32.1 °F 30.0 °F 68% 29.86 in 10.0 mi West 13.8 mph 28.8 mph N/A   Overcast
6:42 AM 39.2 °F 31.2 °F 30.2 °F 70% 29.88 in 10.0 mi WNW 13.8 mph 24.2 mph N/A   Scattered Clouds
6:53 AM 39.2 °F 31.2 °F 30.2 °F 70% 29.88 in 10.0 mi WNW 13.8 mph 24.2 mph N/A   Clear
7:53 AM 37.9 °F 30.9 °F 30.0 °F 73% 29.89 in 10.0 mi WNW 10.4 mph 17.3 mph N/A   Clear
8:53 AM 42.1 °F 36.1 °F 28.9 °F 60% 29.91 in 10.0 mi West 10.4 mph 20.7 mph N/A   Clear
9:53 AM 43.0 °F 36.8 °F 28.9 °F 58% 29.96 in 10.0 mi West 11.5 mph 25.3 mph N/A   Clear
10:53 AM 46.9 °F - 27.0 °F 46% 29.97 in 10.0 mi West 12.7 mph 19.6 mph N/A   Clear
11:53 AM 50.0 °F - 24.1 °F 36% 29.96 in 10.0 mi WNW 16.1 mph 26.5 mph N/A   Clear
12:53 PM 51.1 °F - 24.1 °F 35% 29.96 in 10.0 mi West 15.0 mph 25.3 mph N/A   Clear
1:53 PM 53.1 °F - 23.0 °F 31% 29.97 in 10.0 mi West 13.8 mph 20.7 mph N/A   Clear
2:53 PM 54.0 °F - 21.0 °F 28% 29.98 in 10.0 mi West 11.5 mph 21.9 mph N/A   Clear
3:53 PM 53.1 °F - 19.0 °F 26% 29.99 in 10.0 mi WNW 8.1 mph 19.6 mph N/A   Clear
4:53 PM 51.1 °F - 18.0 °F 27% 30.01 in 10.0 mi WNW 10.4 mph 17.3 mph N/A   Clear
5:53 PM 46.9 °F - 19.0 °F 33% 30.03 in 10.0 mi West 4.6 mph - N/A   Clear
6:53 PM 46.0 °F 44.8 °F 19.9 °F 35% 30.05 in 10.0 mi West 3.5 mph - N/A   Clear
7:53 PM 45.0 °F 43.5 °F 21.0 °F 39% 30.06 in 10.0 mi West 3.5 mph - N/A   Clear
8:53 PM 39.9 °F 37.8 °F 21.9 °F 49% 30.07 in 10.0 mi WSW 3.5 mph - N/A   Clear
9:53 PM 42.1 °F 38.4 °F 21.0 °F 43% 30.08 in 10.0 mi West 5.8 mph - N/A   Clear
10:53 PM 41.0 °F - 21.0 °F 45% 30.09 in 10.0 mi Calm Calm - N/A   Clear
11:53 PM 37.9 °F - 21.9 °F 53% 30.10 in 10.0 mi Calm Calm - N/A   Clear